Location: Leipzig
(51.3392°N, 12.3528°E)
Time: 22:46:41
(UTC+01:00)

ISS - Pass Details

Date: 13 January 2018
Orbit: 402 x 407 km, 51.6° (Epoch: 18 January)

Event Time Altitude Azimuth Distance (km) Brightness Sun altitude
Exits shadow 07:06:34 - 252° (WSW) 1,622 -1.2 -9.6°
Reaches altitude 10° 07:07:41 10° 234° (SW) 1,464 -1.3 -9.4°
Maximum altitude 07:08:18 10° 223° (SW) 1,440 -1.2 -9.3°
Drops below altitude 10° 07:08:55 10° 213° (SSW) 1,463 -1.1 -9.3°
Sets 07:12:34 0° 170° (S) 2,317 0.5 -8.7°
